星链-2058 (STARLINK-2058 )
导读 | 豆包AI
STARLINK-2058是美国太空探索技术公司Starlink星链互联网星座的一员,由猎鹰9号火箭于2021年2月16日发射升空,星链计划旨在搭建覆盖全球的低轨卫星互联网,为全球提供高速低延迟网络服务,该卫星目前运行在近地轨道,承担星座组网的通信节点作用。
Basic Information
目录编号:
47667
目录名称:
STARLINK-2058
国际标识:
2021-012AZ
轨道中心:
EARTH
卫星名称:
星链-2058
卫星全名:
星链-2058 (STARLINK-2058 )
卫星状态:
已陨落 最后检测时间 2026-04-15
发射日期:
2021-02-16 UTC
国别 :
美国
(US)
星等 :
--
Orbit Information
| 数据来源 | 国际轨道数据 |
| 星历时间: | 2026-04-15T10:34:28+0800 轨道信息已过期40天 |
| 半长轴: | 6535.519km |
| 偏心率: | 0.0006087 |
| 轨道倾角: | 53.022° |
| 近地点辐角 | 320.017° |
| 升交点赤经 | 196.680° |
| 平近点角 | 40.043° |
| 近地点: | 153.403km |
| 远地点: | 161.361km |
| 周期: | 87.635分钟 |
| 每日圈数: | 16.431709 |
Detailed Information
固有亮度:
5
最大亮度:
2.5
卫星平台:
Starlink V1.0
覆盖范围:
全球
运营商:
太空探索技术公司
运营商所在国:
美国
制造商(研发单位):
太空探索技术公司
制造商所在国:
美国
使用方式:
暂无
Satellite Introduction
星链(Starlink)计划是由太空探索技术公司(SpaceX)提出的一个巨型低轨卫星互联网星座项目,计划在2019年至2024年间在太空搭建由约1.2万颗卫星组成的“星链”网络,其中1584颗将部署在地球上空550千米处的近地轨道,并从2020年开始工作。该卫星仍在工作。

